Location: Berbisdorf
(50.7638°N, 12.9442°E)
Time: 01:57:47
(UTC+00:00)

STARLINK-80 - Pass Details

Date: 07 June 2020
Orbit: 487 x 491 km, 53.0° (Epoch: 15 July)

Event Time Altitude Azimuth Distance (km) Brightness Sun altitude
Exits shadow 00:17:34 29° 205° (SSW) 930 4.2 -14.8°
Maximum altitude 00:19:06 47° 149° (SSE) 662 3.7 -14.8°
Drops below altitude 10° 00:22:54 - 75° (ENE) 1,738 6.6 -14.6°
Sets 00:25:01 0° 70° (ENE) 2,576 7.6 -14.5°
